ETD72W OMAA-EIDW

Flight info

Callsign ETD72W
Flight time 6h 24m
Altitude 34000
Route ATUDO DCT DANOK DCT SOMAL DCT DEBUD DCT KSA T503 OVANO L768 FIRAS R655 LEBOR UR655 BALMA DCT VESAR UB545 MUT UL619 OKLAM/N0485F360 UL619 OSVEL UQ23 OSDAN UQ26 TUDBU DCT GRN T226 NAVOD DCT INVED DCT DITIS DCT LOMKI DCT VARIK DCT KATCE DCT PREXA DCT RAVLO Y70 OTBED L60 PENIL UL28 LELDO M145 BAGSO BAGSO4L
Aircraft B77W/H-SDE1E2E3FGHIJ2J3J4J5M1RWXY/LB1D1

Departure

Time 2026-05-06 15:35
Airport Zayed International Airport (OMAA)

Arrival

Time 2026-05-06 22:00
Airport Dublin Airport (EIDW)
Time Latitude Longitude Altitude Speed Heading
2026-05-06 14:27 24.44788 54.64429 80 ft 0 kts 253°
2026-05-06 14:39 24.44788 54.64430 84 ft 0 kts 253°
2026-05-06 15:17 24.44788 54.64431 80 ft 1 kts 253°
2026-05-06 15:17 24.44795 54.64456 86 ft 4 kts 253°
2026-05-06 15:17 24.44801 54.64478 86 ft 3 kts 253°
2026-05-06 15:17 24.44810 54.64502 86 ft 4 kts 205°
2026-05-06 15:18 24.44801 54.64517 86 ft 4 kts 127°
2026-05-06 15:18 24.44791 54.64527 85 ft 0 kts 160°
2026-05-06 15:23 24.44786 54.64529 81 ft 1 kts 160°
2026-05-06 15:23 24.44759 54.64540 85 ft 6 kts 158°
2026-05-06 15:23 24.44705 54.64575 85 ft 16 kts 144°
2026-05-06 15:24 24.44617 54.64674 86 ft 16 kts 128°
2026-05-06 15:24 24.44563 54.64728 85 ft 7 kts 174°
2026-05-06 15:24 24.44516 54.64703 84 ft 8 kts 213°
2026-05-06 15:24 24.44460 54.64660 84 ft 12 kts 216°
2026-05-06 15:25 24.44392 54.64600 86 ft 12 kts 219°
2026-05-06 15:25 24.44325 54.64539 85 ft 12 kts 219°
2026-05-06 15:25 24.44249 54.64509 84 ft 13 kts 161°
2026-05-06 15:25 24.44185 54.64574 85 ft 13 kts 129°
2026-05-06 15:26 24.44131 54.64649 85 ft 13 kts 128°
2026-05-06 15:26 24.44077 54.64725 84 ft 13 kts 128°
2026-05-06 15:26 24.44029 54.64782 90 ft 8 kts 158°
2026-05-06 15:26 24.43982 54.64763 84 ft 7 kts 213°
2026-05-06 15:27 24.43970 54.64754 85 ft 1 kts 214°
2026-05-06 15:27 24.43966 54.64751 85 ft 1 kts 215°
2026-05-06 15:27 24.43964 54.64749 85 ft 0 kts 215°
2026-05-06 15:27 24.43962 54.64748 84 ft 1 kts 215°
2026-05-06 15:28 24.43932 54.64739 84 ft 10 kts 181°
2026-05-06 15:28 24.43869 54.64793 85 ft 14 kts 128°
2026-05-06 15:28 24.43787 54.64907 84 ft 24 kts 128°
2026-05-06 15:28 24.43675 54.65065 86 ft 26 kts 128°
2026-05-06 15:29 24.43562 54.65223 85 ft 26 kts 128°
2026-05-06 15:29 24.43449 54.65382 86 ft 26 kts 128°
2026-05-06 15:29 24.43337 54.65541 85 ft 26 kts 128°
2026-05-06 15:29 24.43224 54.65699 84 ft 26 kts 128°
2026-05-06 15:30 24.43111 54.65858 85 ft 26 kts 128°
2026-05-06 15:30 24.42999 54.66017 86 ft 26 kts 127°
2026-05-06 15:30 24.42886 54.66176 85 ft 26 kts 129°
2026-05-06 15:30 24.42773 54.66334 86 ft 26 kts 128°
2026-05-06 15:31 24.42661 54.66493 86 ft 26 kts 128°
2026-05-06 15:31 24.42556 54.66641 85 ft 22 kts 128°
2026-05-06 15:31 24.42493 54.66730 86 ft 11 kts 128°
2026-05-06 15:32 24.42448 54.66769 85 ft 1 kts 174°
2026-05-06 15:32 24.42447 54.66769 85 ft 0 kts 175°
2026-05-06 15:32 24.42440 54.66769 85 ft 4 kts 179°
2026-05-06 15:33 24.42405 54.66749 83 ft 6 kts 213°
2026-05-06 15:33 24.42367 54.66718 86 ft 8 kts 217°
2026-05-06 15:33 24.42305 54.66666 85 ft 11 kts 217°
2026-05-06 15:33 24.42259 54.66620 84 ft 7 kts 246°
2026-05-06 15:34 24.42275 54.66572 85 ft 8 kts 303°
2026-05-06 15:34 24.42386 54.66415 87 ft 53 kts 308°
2026-05-06 15:34 24.42754 54.65896 86 ft 118 kts 308°
2026-05-06 15:34 24.43376 54.65020 88 ft 171 kts 308°
2026-05-06 15:35 24.44171 54.63918 309 ft 188 kts 308°
2026-05-06 15:35 24.44973 54.62769 726 ft 193 kts 309°
2026-05-06 15:35 24.45787 54.61618 1258 ft 187 kts 310°
2026-05-06 15:35 24.46601 54.60487 1602 ft 197 kts 311°
2026-05-06 15:36 24.47483 54.59259 1766 ft 211 kts 310°
2026-05-06 15:36 24.48423 54.57949 1975 ft 226 kts 310°
2026-05-06 15:36 24.49417 54.56557 2335 ft 236 kts 309°
2026-05-06 15:36 24.50429 54.55113 2794 ft 239 kts 309°
2026-05-06 15:37 24.51439 54.53667 3369 ft 240 kts 309°
2026-05-06 15:37 24.52468 54.52198 3816 ft 246 kts 309°
2026-05-06 15:37 24.53522 54.50693 4338 ft 248 kts 309°
2026-05-06 15:37 24.54569 54.49192 4947 ft 246 kts 310°
2026-05-06 15:38 24.55625 54.47720 5548 ft 245 kts 310°
2026-05-06 15:38 24.56676 54.46254 6099 ft 244 kts 310°
2026-05-06 15:38 24.57738 54.44776 6534 ft 250 kts 310°
2026-05-06 15:38 24.58827 54.43259 6952 ft 253 kts 311°
2026-05-06 15:39 24.60181 54.42061 7309 ft 253 kts 341°
2026-05-06 15:39 24.61907 54.41810 7669 ft 253 kts 13°
2026-05-06 15:39 24.63503 54.42590 8087 ft 253 kts 36°
2026-05-06 15:39 24.64843 54.43858 8534 ft 256 kts 50°
2026-05-06 15:40 24.65690 54.45615 8609 ft 275 kts 79°
2026-05-06 15:40 24.65636 54.47781 8705 ft 294 kts 107°
2026-05-06 15:40 24.64715 54.49796 9193 ft 299 kts 127°
2026-05-06 15:40 24.63146 54.51292 9672 ft 304 kts 155°
2026-05-06 15:41 24.61849 54.51749 10016 ft 302 kts 170°
2026-05-06 15:41 24.59799 54.52089 10471 ft 308 kts 171°
2026-05-06 15:41 24.57622 54.52440 10576 ft 328 kts 171°
2026-05-06 15:41 24.55299 54.52838 10722 ft 346 kts 171°
2026-05-06 15:42 24.52858 54.53267 10871 ft 365 kts 171°
2026-05-06 15:42 24.50295 54.53722 11063 ft 379 kts 171°
2026-05-06 15:42 24.47655 54.54194 11437 ft 389 kts 171°
2026-05-06 15:42 24.44964 54.54675 11878 ft 395 kts 171°
2026-05-06 15:43 24.42335 54.55146 12424 ft 398 kts 171°
2026-05-06 15:43 24.39604 54.55634 12995 ft 401 kts 171°
2026-05-06 15:43 24.36850 54.56127 13525 ft 405 kts 171°
2026-05-06 15:43 24.34041 54.56622 13986 ft 407 kts 173°
2026-05-06 15:44 24.31214 54.56597 14253 ft 411 kts 193°
2026-05-06 15:44 24.28576 54.55410 14688 ft 413 kts 214°
2026-05-06 15:44 24.26379 54.53399 15273 ft 412 kts 229°
2026-05-06 15:44 24.24746 54.50847 15759 ft 409 kts 240°
2026-05-06 15:45 24.23287 54.48138 16154 ft 415 kts 240°
2026-05-06 15:45 24.21834 54.45392 16655 ft 418 kts 240°
2026-05-06 15:45 24.20371 54.42628 17222 ft 420 kts 240°
2026-05-06 15:45 24.18896 54.39862 17774 ft 422 kts 240°
2026-05-06 15:46 24.17404 54.37085 18260 ft 425 kts 240°
2026-05-06 15:46 24.15891 54.34290 18707 ft 428 kts 240°
2026-05-06 15:46 24.14365 54.31483 19180 ft 430 kts 240°
2026-05-06 15:46 24.12828 54.28666 19657 ft 432 kts 240°
2026-05-06 15:47 24.11281 54.25834 20131 ft 434 kts 240°
2026-05-06 15:47 24.09727 54.22995 20584 ft 436 kts 240°
2026-05-06 15:47 24.08161 54.20135 21048 ft 439 kts 240°
2026-05-06 15:47 24.06591 54.17268 21501 ft 441 kts 240°
2026-05-06 15:48 24.05009 54.14382 21953 ft 444 kts 240°
2026-05-06 15:48 24.03416 54.11478 22393 ft 446 kts 240°
2026-05-06 15:48 24.01816 54.08561 22829 ft 448 kts 240°
2026-05-06 15:48 24.00206 54.05629 23255 ft 451 kts 240°
2026-05-06 15:49 23.98588 54.02683 23624 ft 453 kts 240°
2026-05-06 15:49 23.96961 53.99722 23996 ft 455 kts 240°
2026-05-06 15:49 23.95330 53.96756 24379 ft 456 kts 240°
2026-05-06 15:49 23.93697 53.93789 24764 ft 457 kts 240°
2026-05-06 15:50 23.92052 53.90802 25114 ft 459 kts 240°
2026-05-06 15:50 23.90404 53.87811 25484 ft 460 kts 240°
2026-05-06 15:50 23.88748 53.84807 25838 ft 462 kts 240°
2026-05-06 15:50 23.87086 53.81793 26190 ft 464 kts 240°
2026-05-06 15:51 23.85419 53.78774 26549 ft 465 kts 240°
2026-05-06 15:51 23.83744 53.75740 26897 ft 467 kts 240°
2026-05-06 15:51 23.82084 53.72736 27233 ft 469 kts 240°
2026-05-06 15:51 23.80399 53.69688 27559 ft 471 kts 240°
2026-05-06 15:52 23.78700 53.66617 27859 ft 473 kts 240°
2026-05-06 15:52 23.76999 53.63543 28184 ft 474 kts 240°
2026-05-06 15:52 23.75292 53.60461 28499 ft 475 kts 240°
2026-05-06 15:52 23.73575 53.57360 28765 ft 478 kts 241°
2026-05-06 15:53 23.72059 53.54141 28995 ft 479 kts 248°
2026-05-06 15:53 23.70931 53.50735 29237 ft 480 kts 254°
2026-05-06 15:53 23.70091 53.47211 29506 ft 480 kts 259°
2026-05-06 15:53 23.69617 53.43636 29783 ft 480 kts 264°
2026-05-06 15:54 23.69259 53.40012 30077 ft 480 kts 264°
2026-05-06 15:54 23.68915 53.36401 30446 ft 477 kts 264°
2026-05-06 15:54 23.68570 53.32824 30871 ft 473 kts 264°
2026-05-06 15:54 23.68218 53.29258 31230 ft 471 kts 263°
2026-05-06 15:55 23.67858 53.25711 31542 ft 470 kts 263°
2026-05-06 15:55 23.67493 53.22173 31824 ft 470 kts 263°
2026-05-06 15:55 23.67122 53.18637 32121 ft 469 kts 263°
2026-05-06 15:55 23.66750 53.15106 32434 ft 467 kts 263°
2026-05-06 15:56 23.66378 53.11593 32752 ft 466 kts 262°
2026-05-06 15:56 23.66006 53.08088 33048 ft 465 kts 262°
2026-05-06 15:56 23.65635 53.04592 33347 ft 463 kts 262°
2026-05-06 15:56 23.65264 53.01107 33640 ft 462 kts 262°
2026-05-06 15:57 23.64516 52.94106 33782 ft 465 kts 262°
2026-05-06 15:57 23.63769 52.87126 33770 ft 462 kts 262°
2026-05-06 15:58 23.63023 52.80185 33769 ft 460 kts 262°
2026-05-06 15:58 23.62277 52.73275 33763 ft 459 kts 262°
2026-05-06 15:59 23.61526 52.66351 33767 ft 460 kts 262°
2026-05-06 15:59 23.60771 52.59422 33770 ft 461 kts 262°
2026-05-06 16:00 23.60010 52.52468 33769 ft 462 kts 262°
2026-05-06 16:00 23.59245 52.45501 33764 ft 463 kts 262°
2026-05-06 16:01 23.58475 52.38518 33766 ft 464 kts 262°
2026-05-06 16:01 23.57702 52.31536 33766 ft 464 kts 262°
2026-05-06 16:02 23.56925 52.24551 33763 ft 464 kts 262°
2026-05-06 16:02 23.56146 52.17571 33764 ft 464 kts 262°
2026-05-06 16:03 23.55363 52.10594 33764 ft 463 kts 262°
2026-05-06 16:03 23.54579 52.03627 33764 ft 463 kts 262°
2026-05-06 16:04 23.53798 51.96717 33761 ft 463 kts 262°
2026-05-06 16:04 23.53009 51.89762 33773 ft 462 kts 262°
2026-05-06 16:05 23.52217 51.82814 33770 ft 462 kts 262°
2026-05-06 16:05 23.51423 51.75876 33761 ft 461 kts 262°
2026-05-06 16:06 23.50628 51.68948 33766 ft 461 kts 262°
2026-05-06 16:06 23.49829 51.62020 33766 ft 461 kts 262°
2026-05-06 16:07 23.49028 51.55098 33774 ft 460 kts 262°
2026-05-06 16:07 23.48467 51.48151 33761 ft 462 kts 270°
2026-05-06 16:08 23.49273 51.41199 33776 ft 465 kts 280°
2026-05-06 16:08 23.51237 51.34460 33766 ft 468 kts 286°
2026-05-06 16:09 23.53406 51.27770 33768 ft 468 kts 286°
2026-05-06 16:09 23.55552 51.21078 33770 ft 468 kts 286°
2026-05-06 16:10 23.57670 51.14367 33779 ft 468 kts 285°
2026-05-06 16:10 23.59771 51.07660 33768 ft 467 kts 285°
2026-05-06 16:11 23.61862 51.00969 33769 ft 466 kts 285°
2026-05-06 16:11 23.63945 50.94296 33766 ft 465 kts 285°
2026-05-06 16:12 23.66021 50.87633 33769 ft 464 kts 285°
2026-05-06 16:12 23.68092 50.80978 33769 ft 463 kts 285°
2026-05-06 16:13 23.70159 50.74323 33779 ft 463 kts 285°
2026-05-06 16:13 23.72212 50.67704 33772 ft 463 kts 285°
2026-05-06 16:14 23.74271 50.61056 33774 ft 462 kts 285°
2026-05-06 16:14 23.76326 50.54408 33768 ft 462 kts 285°
2026-05-06 16:15 23.78377 50.47762 33769 ft 462 kts 285°
2026-05-06 16:15 23.80421 50.41123 33771 ft 461 kts 285°
2026-05-06 16:16 23.82466 50.34473 33786 ft 461 kts 285°
2026-05-06 16:16 23.84505 50.27834 33771 ft 460 kts 285°
2026-05-06 16:17 23.86536 50.21205 33771 ft 459 kts 285°
2026-05-06 16:17 23.88558 50.14596 33776 ft 459 kts 285°
2026-05-06 16:18 23.90577 50.07987 33777 ft 458 kts 285°
2026-05-06 16:18 23.92592 50.01375 33783 ft 459 kts 285°
2026-05-06 16:19 23.94606 49.94759 33794 ft 459 kts 285°
2026-05-06 16:19 23.96618 49.88138 33782 ft 459 kts 285°
2026-05-06 16:20 23.98623 49.81528 33786 ft 458 kts 285°
2026-05-06 16:20 24.00612 49.74961 33788 ft 457 kts 285°
2026-05-06 16:21 24.02607 49.68362 33788 ft 457 kts 285°
2026-05-06 16:21 24.04597 49.61764 33790 ft 457 kts 285°
2026-05-06 16:22 24.06584 49.55169 33807 ft 456 kts 285°
2026-05-06 16:22 24.08567 49.48576 33795 ft 456 kts 285°
2026-05-06 16:23 24.10546 49.41985 33797 ft 455 kts 284°
2026-05-06 16:23 24.12518 49.35401 33796 ft 455 kts 284°
2026-05-06 16:24 24.14487 49.28822 33803 ft 455 kts 284°
2026-05-06 16:24 24.16453 49.22238 33799 ft 455 kts 284°
2026-05-06 16:25 24.18417 49.15648 33816 ft 455 kts 284°
2026-05-06 16:25 24.20379 49.09056 33808 ft 455 kts 284°
2026-05-06 16:26 24.22334 49.02474 33809 ft 455 kts 284°
2026-05-06 16:26 24.24292 48.95871 33817 ft 456 kts 284°
2026-05-06 16:27 24.25918 48.90377 33814 ft 456 kts 284°
2026-05-06 16:27 24.28193 48.82681 33813 ft 457 kts 284°
2026-05-06 16:28 24.29834 48.77119 33822 ft 457 kts 284°
2026-05-06 16:28 24.31788 48.70484 33822 ft 458 kts 284°
2026-05-06 16:29 24.33821 48.63867 33822 ft 459 kts 285°
2026-05-06 16:29 24.36045 48.57291 33830 ft 460 kts 286°
2026-05-06 16:30 24.37903 48.51826 33832 ft 460 kts 286°
2026-05-06 16:30 24.40465 48.44186 33835 ft 460 kts 286°
2026-05-06 16:31 24.42659 48.37578 33835 ft 461 kts 286°
2026-05-06 16:31 24.44843 48.30977 33845 ft 461 kts 286°
2026-05-06 16:32 24.47031 48.24352 33844 ft 462 kts 286°
2026-05-06 16:32 24.49218 48.17724 33851 ft 462 kts 285°
2026-05-06 16:33 24.51405 48.11087 33849 ft 462 kts 285°
2026-05-06 16:34 24.54672 48.01152 33862 ft 460 kts 285°
2026-05-06 16:34 24.56832 47.94570 33850 ft 457 kts 285°
2026-05-06 16:35 24.58975 47.88028 33856 ft 454 kts 285°
2026-05-06 16:35 24.61105 47.81514 33859 ft 452 kts 285°
2026-05-06 16:36 24.63224 47.75019 33869 ft 451 kts 285°
2026-05-06 16:36 24.65337 47.68534 33869 ft 451 kts 285°
2026-05-06 16:37 24.67448 47.62046 33868 ft 450 kts 285°
2026-05-06 16:37 24.69553 47.55564 33872 ft 450 kts 285°
2026-05-06 16:38 24.71659 47.49071 33881 ft 451 kts 285°
2026-05-06 16:38 24.73750 47.42611 33880 ft 452 kts 285°
2026-05-06 16:39 24.75833 47.36165 33888 ft 453 kts 285°
2026-05-06 16:39 24.77941 47.29631 33890 ft 453 kts 285°
2026-05-06 16:40 24.80013 47.23199 33897 ft 454 kts 285°
2026-05-06 16:40 24.82122 47.16642 33888 ft 454 kts 284°
2026-05-06 16:41 24.84213 47.10128 33899 ft 455 kts 284°
2026-05-06 16:41 24.86317 47.03565 33900 ft 455 kts 284°
2026-05-06 16:42 24.88419 46.96993 33913 ft 455 kts 284°
2026-05-06 16:42 24.90515 46.90432 33907 ft 454 kts 284°
2026-05-06 16:43 24.92603 46.83885 33913 ft 452 kts 284°
2026-05-06 16:43 24.94683 46.77350 33908 ft 451 kts 284°
2026-05-06 16:44 24.96857 46.70864 33907 ft 454 kts 290°
2026-05-06 16:44 25.00274 46.64925 33908 ft 464 kts 301°
2026-05-06 16:45 25.04804 46.59766 33925 ft 472 kts 310°
2026-05-06 16:45 25.09671 46.54903 33910 ft 471 kts 310°
2026-05-06 16:46 25.14515 46.50032 33927 ft 471 kts 310°
2026-05-06 16:46 25.19325 46.45130 33920 ft 470 kts 309°
2026-05-06 16:47 25.24116 46.40219 33923 ft 470 kts 309°
2026-05-06 16:47 25.28905 46.35304 33926 ft 470 kts 309°
2026-05-06 16:48 25.33666 46.30415 33936 ft 471 kts 309°
2026-05-06 16:48 25.38460 46.25487 33926 ft 471 kts 309°
2026-05-06 16:49 25.43261 46.20547 33925 ft 471 kts 309°
2026-05-06 16:49 25.48059 46.15605 33939 ft 471 kts 309°
2026-05-06 16:50 25.52856 46.10656 33929 ft 472 kts 309°
2026-05-06 16:50 25.57663 46.05692 33935 ft 472 kts 309°
2026-05-06 16:51 25.62464 46.00730 33947 ft 472 kts 309°
2026-05-06 16:51 25.67272 45.95758 33942 ft 473 kts 308°
2026-05-06 16:52 25.72077 45.90783 33945 ft 473 kts 308°
2026-05-06 16:52 25.76882 45.85801 33946 ft 473 kts 308°
2026-05-06 16:53 25.81687 45.80813 33948 ft 473 kts 308°
2026-05-06 16:53 25.86489 45.75823 33953 ft 473 kts 308°
2026-05-06 16:54 25.91243 45.70881 33950 ft 472 kts 308°
2026-05-06 16:54 25.96033 45.65899 33971 ft 472 kts 308°
2026-05-06 16:55 26.00820 45.60912 33949 ft 471 kts 308°
2026-05-06 16:55 26.05596 45.55930 33965 ft 470 kts 308°
2026-05-06 16:56 26.10366 45.50947 33968 ft 469 kts 308°
2026-05-06 16:56 26.15122 45.45973 33955 ft 469 kts 308°
2026-05-06 16:57 26.19876 45.40990 33961 ft 469 kts 307°
2026-05-06 16:57 26.24618 45.35996 33958 ft 469 kts 307°
2026-05-06 16:58 26.29360 45.30999 33970 ft 470 kts 307°
2026-05-06 16:58 26.34085 45.26030 33968 ft 470 kts 307°
2026-05-06 16:59 26.38882 45.21001 33961 ft 470 kts 307°
2026-05-06 16:59 26.43640 45.16003 33965 ft 470 kts 307°
2026-05-06 17:00 26.48358 45.11038 33961 ft 469 kts 307°
2026-05-06 17:00 26.53098 45.06043 33958 ft 468 kts 307°
2026-05-06 17:01 26.57829 45.01051 33979 ft 468 kts 307°
2026-05-06 17:01 26.62561 44.96057 33963 ft 468 kts 307°
2026-05-06 17:02 26.67293 44.91063 33953 ft 468 kts 307°
2026-05-06 17:02 26.72020 44.86068 33957 ft 468 kts 307°
2026-05-06 17:03 26.76746 44.81066 33957 ft 468 kts 307°
2026-05-06 17:03 26.81467 44.76049 33956 ft 468 kts 307°
2026-05-06 17:04 26.86183 44.71021 33955 ft 468 kts 307°
2026-05-06 17:04 26.90899 44.65988 33967 ft 469 kts 306°
2026-05-06 17:05 26.95622 44.60942 33980 ft 469 kts 306°
2026-05-06 17:05 27.00348 44.55890 33960 ft 469 kts 306°
2026-05-06 17:06 27.05078 44.50845 33955 ft 469 kts 306°
2026-05-06 17:06 27.09804 44.45801 33957 ft 468 kts 306°
2026-05-06 17:07 27.14520 44.40758 33982 ft 468 kts 306°
2026-05-06 17:07 27.19233 44.35712 33965 ft 468 kts 306°
2026-05-06 17:08 27.23932 44.30672 33965 ft 467 kts 306°
2026-05-06 17:08 27.28627 44.25627 33985 ft 467 kts 306°
2026-05-06 17:09 27.33284 44.20617 33984 ft 466 kts 306°
2026-05-06 17:09 27.37966 44.15572 33965 ft 466 kts 306°
2026-05-06 17:10 27.42644 44.10528 33972 ft 465 kts 306°
2026-05-06 17:10 27.47314 44.05485 33977 ft 465 kts 306°
2026-05-06 17:11 27.51975 44.00445 33984 ft 465 kts 306°
2026-05-06 17:11 27.56635 43.95400 33976 ft 464 kts 306°
2026-05-06 17:12 27.61291 43.90354 33977 ft 464 kts 306°
2026-05-06 17:12 27.65947 43.85302 33979 ft 464 kts 306°
2026-05-06 17:13 27.70595 43.80250 33991 ft 464 kts 306°
2026-05-06 17:13 27.75245 43.75191 33985 ft 464 kts 306°
2026-05-06 17:14 27.79897 43.70123 33983 ft 465 kts 306°
2026-05-06 17:14 27.83765 43.65905 33988 ft 465 kts 306°
2026-05-06 17:15 27.88288 43.60737 33994 ft 461 kts 303°
2026-05-06 17:15 27.92635 43.55423 33978 ft 460 kts 302°
2026-05-06 17:16 27.96980 43.50110 33996 ft 460 kts 302°
2026-05-06 17:16 28.01350 43.44814 33997 ft 461 kts 303°
2026-05-06 17:17 28.05732 43.39520 34003 ft 461 kts 303°
2026-05-06 17:17 28.10118 43.34222 34003 ft 461 kts 303°
2026-05-06 17:18 28.14496 43.28923 33998 ft 460 kts 303°
2026-05-06 17:18 28.18863 43.23629 34003 ft 459 kts 303°
2026-05-06 17:19 28.23221 43.18336 34016 ft 459 kts 302°
2026-05-06 17:19 28.27582 43.13035 34000 ft 459 kts 302°
2026-05-06 17:20 28.31911 43.07766 34011 ft 459 kts 302°
2026-05-06 17:20 28.36267 43.02458 34009 ft 459 kts 302°
2026-05-06 17:21 28.40617 42.97150 34012 ft 459 kts 302°
2026-05-06 17:21 28.44964 42.91838 34007 ft 459 kts 302°
2026-05-06 17:22 28.49308 42.86524 34018 ft 458 kts 302°
2026-05-06 17:22 28.53644 42.81212 34010 ft 458 kts 302°
2026-05-06 17:23 28.57970 42.75904 34012 ft 457 kts 302°
2026-05-06 17:23 28.62294 42.70593 34009 ft 457 kts 302°
2026-05-06 17:24 28.66611 42.65282 34012 ft 457 kts 302°
2026-05-06 17:24 28.70918 42.59965 34042 ft 457 kts 302°
2026-05-06 17:25 28.75223 42.54640 34020 ft 456 kts 302°
2026-05-06 17:25 28.79516 42.49324 34019 ft 456 kts 302°
2026-05-06 17:26 28.83784 42.44035 34020 ft 455 kts 302°
2026-05-06 17:26 28.88066 42.38720 34069 ft 455 kts 302°
2026-05-06 17:27 28.92350 42.33395 34029 ft 455 kts 302°
2026-05-06 17:27 28.96620 42.28080 34027 ft 454 kts 302°
2026-05-06 17:28 29.00881 42.22769 34029 ft 453 kts 302°
2026-05-06 17:28 29.05131 42.17467 34047 ft 453 kts 302°
2026-05-06 17:29 29.09387 42.12156 34033 ft 453 kts 302°
2026-05-06 17:29 29.13641 42.06843 34035 ft 453 kts 302°
2026-05-06 17:30 29.17901 42.01514 34043 ft 454 kts 302°
2026-05-06 17:30 29.22160 41.96177 34047 ft 455 kts 302°
2026-05-06 17:31 29.26428 41.90820 34047 ft 456 kts 303°
2026-05-06 17:31 29.30708 41.85445 34057 ft 457 kts 302°
2026-05-06 17:32 29.35001 41.80045 34053 ft 459 kts 302°
2026-05-06 17:32 29.39298 41.74632 34052 ft 459 kts 302°
2026-05-06 17:33 29.43572 41.69241 34046 ft 460 kts 302°
2026-05-06 17:33 29.47875 41.63807 34051 ft 460 kts 302°
2026-05-06 17:34 29.52185 41.58356 34055 ft 461 kts 302°
2026-05-06 17:34 29.56488 41.52906 34063 ft 461 kts 302°
2026-05-06 17:35 29.60798 41.47439 34061 ft 461 kts 302°
2026-05-06 17:35 29.65103 41.41971 34061 ft 462 kts 302°
2026-05-06 17:36 29.71566 41.33749 34084 ft 462 kts 302°
2026-05-06 17:36 29.76099 41.28439 34064 ft 470 kts 308°
2026-05-06 17:37 29.81010 41.23453 34064 ft 471 kts 309°
2026-05-06 17:37 29.85924 41.18469 34059 ft 471 kts 309°
2026-05-06 17:38 29.90819 41.13458 34063 ft 470 kts 308°
2026-05-06 17:38 29.95699 41.08438 34070 ft 470 kts 308°
2026-05-06 17:39 30.00573 41.03417 34059 ft 469 kts 308°
2026-05-06 17:39 30.05440 40.98396 34054 ft 469 kts 308°
2026-05-06 17:40 30.10300 40.93376 34066 ft 469 kts 308°
2026-05-06 17:40 30.15120 40.88391 34073 ft 468 kts 308°
2026-05-06 17:41 30.19967 40.83372 34060 ft 468 kts 308°
2026-05-06 17:41 30.24805 40.78354 34055 ft 467 kts 308°
2026-05-06 17:42 30.29635 40.73336 34060 ft 467 kts 308°
2026-05-06 17:42 30.34466 40.68312 34064 ft 466 kts 308°
2026-05-06 17:43 30.39294 40.63285 34063 ft 467 kts 308°
2026-05-06 17:43 30.44164 40.58287 34079 ft 469 kts 309°
2026-05-06 17:44 30.49058 40.53295 34067 ft 469 kts 309°
2026-05-06 17:44 30.53945 40.48297 34068 ft 468 kts 309°
2026-05-06 17:45 30.58817 40.43297 34059 ft 467 kts 309°
2026-05-06 17:45 30.63681 40.38296 34060 ft 467 kts 309°
2026-05-06 17:46 30.68538 40.33293 34060 ft 466 kts 309°
2026-05-06 17:46 30.73383 40.28297 34056 ft 466 kts 309°
2026-05-06 17:47 30.78235 40.23285 34089 ft 467 kts 309°
2026-05-06 17:47 30.83091 40.18263 34064 ft 467 kts 309°
2026-05-06 17:48 30.87948 40.13233 34047 ft 467 kts 309°
2026-05-06 17:48 30.92796 40.08208 34055 ft 467 kts 309°
2026-05-06 17:49 30.97646 40.03171 34044 ft 467 kts 309°
2026-05-06 17:49 31.02488 39.98135 34055 ft 467 kts 309°
2026-05-06 17:50 31.07330 39.93093 34055 ft 467 kts 309°
2026-05-06 17:50 31.12171 39.88044 34081 ft 467 kts 309°
2026-05-06 17:51 31.17011 39.82988 34049 ft 466 kts 309°
2026-05-06 17:51 31.21840 39.77938 34055 ft 466 kts 309°
2026-05-06 17:52 31.26612 39.72940 34042 ft 465 kts 309°
2026-05-06 17:52 31.31420 39.67897 34043 ft 464 kts 309°
2026-05-06 17:53 31.36223 39.62850 34048 ft 464 kts 309°
2026-05-06 17:53 31.41020 39.57804 34066 ft 464 kts 309°
2026-05-06 17:54 31.45814 39.52750 34052 ft 464 kts 309°
2026-05-06 17:54 31.50602 39.47683 34048 ft 464 kts 309°
2026-05-06 17:55 31.55387 39.42609 34052 ft 464 kts 309°
2026-05-06 17:55 31.60174 39.37527 34055 ft 464 kts 309°
2026-05-06 17:56 31.64930 39.32471 34055 ft 465 kts 308°
2026-05-06 17:56 31.69717 39.27375 34048 ft 465 kts 308°
2026-05-06 17:57 31.74502 39.22274 34050 ft 464 kts 308°
2026-05-06 17:57 31.79425 39.17312 34051 ft 472 kts 315°
2026-05-06 17:58 31.85120 39.13249 34057 ft 486 kts 324°
2026-05-06 17:58 31.91206 39.09743 34048 ft 487 kts 324°
2026-05-06 17:59 31.97277 39.06201 34053 ft 486 kts 323°
2026-05-06 17:59 32.03313 39.02622 34050 ft 485 kts 323°
2026-05-06 18:00 32.09354 38.99060 34071 ft 486 kts 324°
2026-05-06 18:00 32.15399 38.95503 34058 ft 486 kts 323°
2026-05-06 18:01 32.21445 38.91936 34053 ft 486 kts 323°
2026-05-06 18:01 32.27481 38.88368 34077 ft 485 kts 323°
2026-05-06 18:02 32.32538 38.85374 34052 ft 485 kts 323°
2026-05-06 18:02 32.38527 38.81822 34069 ft 484 kts 323°
2026-05-06 18:03 32.44539 38.78252 34055 ft 483 kts 323°
2026-05-06 18:03 32.50571 38.74664 34051 ft 482 kts 323°
2026-05-06 18:04 32.56557 38.71098 34052 ft 481 kts 323°
2026-05-06 18:04 32.62537 38.67532 34051 ft 481 kts 323°
2026-05-06 18:05 32.68479 38.63988 34046 ft 481 kts 324°
2026-05-06 18:05 32.74495 38.60397 34056 ft 480 kts 324°
2026-05-06 18:06 32.80419 38.56853 34053 ft 479 kts 324°
2026-05-06 18:06 32.86376 38.53283 34057 ft 479 kts 324°
2026-05-06 18:07 32.92324 38.49711 34077 ft 479 kts 324°
2026-05-06 18:07 32.98275 38.46136 34066 ft 479 kts 324°
2026-05-06 18:08 33.04230 38.42552 34054 ft 479 kts 324°
2026-05-06 18:08 33.10179 38.38967 34052 ft 479 kts 324°
2026-05-06 18:09 33.16117 38.35374 34059 ft 478 kts 324°
2026-05-06 18:09 33.22039 38.31752 34067 ft 478 kts 324°
2026-05-06 18:10 33.27964 38.28134 34063 ft 478 kts 324°
2026-05-06 18:10 33.33891 38.24514 34057 ft 478 kts 324°
2026-05-06 18:11 33.39812 38.20890 34060 ft 478 kts 324°
2026-05-06 18:11 33.45730 38.17262 34088 ft 478 kts 324°
2026-05-06 18:12 33.51655 38.13659 34061 ft 477 kts 324°
2026-05-06 18:12 33.57578 38.10074 34062 ft 476 kts 324°
2026-05-06 18:13 33.63476 38.06491 34060 ft 475 kts 324°
2026-05-06 18:13 33.69357 38.02907 34067 ft 474 kts 324°
2026-05-06 18:14 33.75244 37.99313 34070 ft 475 kts 324°
2026-05-06 18:14 33.81134 37.95714 34055 ft 475 kts 324°
2026-05-06 18:15 33.86540 37.91449 34065 ft 456 kts 309°
2026-05-06 18:15 33.90585 37.85780 34065 ft 439 kts 295°
2026-05-06 18:16 33.93792 37.79524 34070 ft 439 kts 295°
2026-05-06 18:16 33.97019 37.73253 34069 ft 441 kts 295°
2026-05-06 18:17 34.00275 37.66983 34078 ft 442 kts 295°
2026-05-06 18:17 34.03547 37.60698 34071 ft 443 kts 295°
2026-05-06 18:18 34.06801 37.54441 34066 ft 443 kts 295°
2026-05-06 18:18 34.10090 37.48102 34071 ft 442 kts 295°
2026-05-06 18:19 34.13331 37.41841 34068 ft 444 kts 296°
2026-05-06 18:19 34.16597 37.35523 34050 ft 444 kts 296°
2026-05-06 18:20 34.19666 37.29097 34046 ft 437 kts 287°
2026-05-06 18:20 34.21504 37.22190 34083 ft 430 kts 278°
2026-05-06 18:21 34.22275 37.15069 34063 ft 428 kts 272°
2026-05-06 18:21 34.22799 37.07905 34034 ft 429 kts 272°
2026-05-06 18:22 34.23342 37.00721 34068 ft 429 kts 272°
2026-05-06 18:22 34.23899 36.93533 34073 ft 431 kts 272°
2026-05-06 18:23 34.24462 36.86305 34066 ft 432 kts 272°
2026-05-06 18:23 34.25021 36.79071 34054 ft 432 kts 272°
2026-05-06 18:24 34.25575 36.71836 34055 ft 433 kts 272°
2026-05-06 18:24 34.26126 36.64591 34072 ft 433 kts 272°
2026-05-06 18:25 34.26671 36.57333 34059 ft 433 kts 272°
2026-05-06 18:25 34.26989 36.50066 34068 ft 433 kts 270°
2026-05-06 18:26 34.27210 36.42792 34068 ft 433 kts 270°
2026-05-06 18:26 34.27455 36.35516 34049 ft 433 kts 270°
2026-05-06 18:27 34.27717 36.28238 34067 ft 433 kts 270°
2026-05-06 18:27 34.27977 36.20973 34055 ft 433 kts 270°
2026-05-06 18:28 34.28233 36.13703 34051 ft 432 kts 270°
2026-05-06 18:28 34.28485 36.06448 34066 ft 432 kts 270°
2026-05-06 18:29 34.28733 35.99193 34056 ft 432 kts 270°
2026-05-06 18:29 34.29069 35.91929 34056 ft 433 kts 271°
2026-05-06 18:30 34.29426 35.84647 34032 ft 433 kts 271°
2026-05-06 18:30 34.29765 35.77395 34047 ft 432 kts 271°
2026-05-06 18:31 34.30422 35.70156 34043 ft 435 kts 278°
2026-05-06 18:31 34.31990 35.63079 34046 ft 437 kts 285°
2026-05-06 18:32 34.33976 35.56123 34034 ft 438 kts 285°
2026-05-06 18:32 34.35933 35.49224 34036 ft 438 kts 285°
2026-05-06 18:33 34.37895 35.42234 34046 ft 439 kts 285°
2026-05-06 18:33 34.39861 35.35188 34033 ft 439 kts 285°
2026-05-06 18:34 34.41799 35.28224 34024 ft 439 kts 285°
2026-05-06 18:34 34.43747 35.21205 34023 ft 440 kts 285°
2026-05-06 18:35 34.45695 35.14178 34028 ft 440 kts 285°
2026-05-06 18:35 34.48159 35.07405 34023 ft 447 kts 301°
2026-05-06 18:36 34.52506 35.01916 34031 ft 461 kts 319°
2026-05-06 18:36 34.58052 34.97908 34045 ft 466 kts 324°
2026-05-06 18:37 34.62793 34.94661 34033 ft 467 kts 324°
2026-05-06 18:37 34.69339 34.90100 34021 ft 467 kts 324°
2026-05-06 18:38 34.74945 34.86125 34019 ft 466 kts 324°
2026-05-06 18:38 34.80528 34.82142 34045 ft 465 kts 324°
2026-05-06 18:39 34.86105 34.78155 34025 ft 465 kts 324°
2026-05-06 18:40 34.94479 34.72162 34031 ft 465 kts 324°
2026-05-06 18:40 35.00050 34.68169 34019 ft 465 kts 324°
2026-05-06 18:41 35.05620 34.64170 34018 ft 464 kts 324°
2026-05-06 18:41 35.11190 34.60164 34025 ft 465 kts 324°
2026-05-06 18:42 35.16765 34.56147 34019 ft 465 kts 324°
2026-05-06 18:42 35.22339 34.52126 34016 ft 465 kts 324°
2026-05-06 18:43 35.27915 34.48097 34018 ft 466 kts 324°
2026-05-06 18:43 35.33492 34.44060 34021 ft 466 kts 324°
2026-05-06 18:44 35.39069 34.40016 34015 ft 466 kts 324°
2026-05-06 18:44 35.44648 34.35965 34011 ft 466 kts 324°
2026-05-06 18:45 35.49286 34.32592 34011 ft 466 kts 324°
2026-05-06 18:45 35.54856 34.28535 34013 ft 466 kts 324°
2026-05-06 18:46 35.60429 34.24469 34013 ft 466 kts 324°
2026-05-06 18:46 35.65998 34.20398 34020 ft 466 kts 325°
2026-05-06 18:47 35.71577 34.16315 34001 ft 466 kts 325°
2026-05-06 18:47 35.77147 34.12231 33997 ft 466 kts 325°
2026-05-06 18:48 35.82716 34.08141 34020 ft 466 kts 325°
2026-05-06 18:48 35.88251 34.04069 34000 ft 466 kts 325°
2026-05-06 18:49 35.93817 33.99952 34006 ft 466 kts 324°
2026-05-06 18:49 35.99349 33.95763 34006 ft 466 kts 324°
2026-05-06 18:50 36.04875 33.91559 34009 ft 467 kts 324°
2026-05-06 18:50 36.10409 33.87353 34005 ft 467 kts 324°
2026-05-06 18:51 36.15946 33.83142 34006 ft 467 kts 324°
2026-05-06 18:51 36.21485 33.78923 34022 ft 467 kts 325°
2026-05-06 18:52 36.27021 33.74700 34017 ft 468 kts 325°
2026-05-06 18:52 36.32500 33.70529 34023 ft 467 kts 325°
2026-05-06 18:53 36.38040 33.66308 34019 ft 467 kts 325°
2026-05-06 18:53 36.43567 33.62089 34021 ft 466 kts 325°
2026-05-06 18:54 36.49018 33.57918 34023 ft 466 kts 325°
2026-05-06 18:54 36.54535 33.53689 34030 ft 465 kts 325°
2026-05-06 18:55 36.60036 33.49467 34030 ft 465 kts 325°
2026-05-06 18:55 36.65538 33.45235 34041 ft 465 kts 325°
2026-05-06 18:56 36.71043 33.40994 34035 ft 465 kts 325°
2026-05-06 18:56 36.76542 33.36749 34052 ft 465 kts 325°
2026-05-06 18:57 36.82051 33.32492 34046 ft 466 kts 325°
2026-05-06 18:57 36.87253 33.27723 34054 ft 463 kts 316°
2026-05-06 18:58 36.91719 33.21979 34058 ft 461 kts 310°
2026-05-06 18:58 36.95998 33.16086 34061 ft 461 kts 310°
2026-05-06 18:59 37.00317 33.10154 34066 ft 461 kts 310°
2026-05-06 18:59 37.04653 33.04223 34058 ft 462 kts 311°
2026-05-06 19:00 37.08997 32.98285 34081 ft 463 kts 311°
2026-05-06 19:00 37.13352 32.92321 34086 ft 464 kts 311°
2026-05-06 19:01 37.17710 32.86342 34072 ft 465 kts 311°
2026-05-06 19:01 37.22071 32.80346 34067 ft 465 kts 311°
2026-05-06 19:02 37.26422 32.74355 34071 ft 465 kts 311°
2026-05-06 19:02 37.30773 32.68350 34075 ft 464 kts 311°
2026-05-06 19:03 37.35116 32.62346 34072 ft 464 kts 311°
2026-05-06 19:03 37.39454 32.56337 34082 ft 464 kts 311°
2026-05-06 19:04 37.43779 32.50336 34078 ft 463 kts 311°
2026-05-06 19:04 37.48099 32.44328 34075 ft 463 kts 311°
2026-05-06 19:05 37.52412 32.38321 34069 ft 462 kts 311°
2026-05-06 19:05 37.56721 32.32310 34085 ft 462 kts 312°
2026-05-06 19:06 37.61017 32.26303 34058 ft 461 kts 312°
2026-05-06 19:06 37.65302 32.20302 34064 ft 460 kts 312°
2026-05-06 19:07 37.69575 32.14307 34059 ft 459 kts 312°
2026-05-06 19:07 37.73814 32.08347 34068 ft 459 kts 312°
2026-05-06 19:08 37.78081 32.02337 34059 ft 459 kts 312°
2026-05-06 19:08 37.82340 31.96326 34050 ft 459 kts 312°
2026-05-06 19:09 37.86627 31.90265 34047 ft 459 kts 312°
2026-05-06 19:09 37.90852 31.84281 34046 ft 459 kts 312°
2026-05-06 19:10 37.95102 31.78249 34043 ft 459 kts 312°
2026-05-06 19:10 37.99347 31.72214 34062 ft 459 kts 312°
2026-05-06 19:11 38.03589 31.66171 34057 ft 459 kts 312°
2026-05-06 19:11 38.07829 31.60120 34039 ft 458 kts 312°
2026-05-06 19:12 38.12061 31.54068 34060 ft 458 kts 313°
2026-05-06 19:12 38.16287 31.48014 34041 ft 457 kts 313°
2026-05-06 19:13 38.20501 31.41963 34039 ft 457 kts 313°
2026-05-06 19:13 38.24705 31.35916 34050 ft 456 kts 313°
2026-05-06 19:14 38.28898 31.29872 34057 ft 455 kts 313°
2026-05-06 19:14 38.33090 31.23819 34048 ft 456 kts 313°
2026-05-06 19:15 38.37275 31.17764 34063 ft 455 kts 313°
2026-05-06 19:15 38.41459 31.11698 34057 ft 455 kts 313°
2026-05-06 19:16 38.45640 31.05629 34063 ft 455 kts 313°
2026-05-06 19:16 38.50189 31.00120 34069 ft 454 kts 323°
2026-05-06 19:17 38.55352 30.95495 34075 ft 453 kts 326°
2026-05-06 19:17 38.60558 30.90943 34072 ft 454 kts 326°
2026-05-06 19:18 38.65754 30.86348 34073 ft 454 kts 326°
2026-05-06 19:18 38.70934 30.81740 34083 ft 454 kts 326°
2026-05-06 19:19 38.76112 30.77122 34077 ft 453 kts 326°
2026-05-06 19:19 38.81281 30.72507 34085 ft 452 kts 326°
2026-05-06 19:20 38.86520 30.68075 34094 ft 450 kts 332°
2026-05-06 19:20 38.92090 30.64462 34098 ft 450 kts 334°
2026-05-06 19:21 38.97691 30.60869 34113 ft 450 kts 334°
2026-05-06 19:21 39.03144 30.56976 34106 ft 450 kts 326°
2026-05-06 19:22 39.08259 30.52319 34108 ft 450 kts 326°
2026-05-06 19:22 39.13360 30.47657 34117 ft 449 kts 326°
2026-05-06 19:23 39.18464 30.43017 34116 ft 449 kts 326°
2026-05-06 19:23 39.23560 30.38396 34106 ft 449 kts 326°
2026-05-06 19:24 39.28673 30.33756 34121 ft 449 kts 326°
2026-05-06 19:24 39.33790 30.29104 34121 ft 450 kts 326°
2026-05-06 19:25 39.38909 30.24441 34122 ft 450 kts 326°
2026-05-06 19:25 39.44003 30.19791 34122 ft 451 kts 326°
2026-05-06 19:26 39.49126 30.15106 34123 ft 451 kts 326°
2026-05-06 19:26 39.54234 30.10426 34108 ft 451 kts 326°
2026-05-06 19:27 39.59400 30.05685 34122 ft 453 kts 326°
2026-05-06 19:27 39.64547 30.00953 34123 ft 454 kts 326°
2026-05-06 19:28 39.69679 29.96225 34116 ft 455 kts 326°
2026-05-06 19:28 39.74853 29.91450 34116 ft 456 kts 326°
2026-05-06 19:29 39.80023 29.86668 34109 ft 456 kts 326°
2026-05-06 19:29 39.85182 29.81888 34094 ft 456 kts 326°
2026-05-06 19:30 39.90347 29.77095 34104 ft 456 kts 325°
2026-05-06 19:30 39.95516 29.72288 34100 ft 457 kts 325°
2026-05-06 19:31 40.00685 29.67472 34259 ft 459 kts 325°
2026-05-06 19:31 40.03278 29.65052 34575 ft 458 kts 325°
2026-05-06 19:31 40.07575 29.61037 35110 ft 456 kts 325°
2026-05-06 19:32 40.10954 29.57875 35481 ft 455 kts 325°
2026-05-06 19:32 40.13567 29.55428 35738 ft 455 kts 325°
2026-05-06 19:32 40.15303 29.53801 35882 ft 455 kts 325°
2026-05-06 19:32 40.17848 29.51415 35986 ft 457 kts 325°
2026-05-06 19:33 40.23026 29.46550 36079 ft 458 kts 324°
2026-05-06 19:33 40.28197 29.41682 36082 ft 456 kts 324°
2026-05-06 19:34 40.33354 29.36818 36082 ft 455 kts 324°
2026-05-06 19:34 40.38483 29.31972 36082 ft 454 kts 324°
2026-05-06 19:35 40.43601 29.27127 36065 ft 454 kts 324°
2026-05-06 19:35 40.48695 29.22296 36075 ft 454 kts 324°
2026-05-06 19:36 40.53820 29.17426 36078 ft 455 kts 324°
2026-05-06 19:36 40.58960 29.12531 36087 ft 457 kts 324°
2026-05-06 19:37 40.64110 29.07618 36081 ft 458 kts 324°
2026-05-06 19:37 40.69277 29.02679 36075 ft 458 kts 324°
2026-05-06 19:38 40.74390 28.97783 36077 ft 458 kts 324°
2026-05-06 19:38 40.79544 28.92837 36068 ft 458 kts 324°
2026-05-06 19:39 40.84700 28.87879 36081 ft 459 kts 324°
2026-05-06 19:39 40.89860 28.82908 36079 ft 459 kts 324°
2026-05-06 19:40 40.95009 28.77937 36070 ft 459 kts 324°
2026-05-06 19:40 41.00173 28.72943 36074 ft 460 kts 324°
2026-05-06 19:41 41.05334 28.67942 36066 ft 460 kts 324°
2026-05-06 19:41 41.10490 28.62934 36071 ft 459 kts 324°
2026-05-06 19:42 41.15640 28.57924 36068 ft 458 kts 324°
2026-05-06 19:42 41.20778 28.52914 36070 ft 458 kts 324°
2026-05-06 19:43 41.25901 28.47910 36066 ft 457 kts 324°
2026-05-06 19:43 41.31027 28.42892 36063 ft 456 kts 324°
2026-05-06 19:44 41.36146 28.37871 36057 ft 456 kts 324°
2026-05-06 19:44 41.41208 28.32897 36061 ft 455 kts 324°
2026-05-06 19:45 41.46298 28.27885 36064 ft 455 kts 324°
2026-05-06 19:45 41.51384 28.22866 36057 ft 454 kts 324°
2026-05-06 19:46 41.56457 28.17850 36057 ft 454 kts 324°
2026-05-06 19:46 41.61521 28.12835 36061 ft 453 kts 324°
2026-05-06 19:47 41.66547 28.07846 36059 ft 453 kts 324°
2026-05-06 19:47 41.71571 28.02848 36063 ft 453 kts 324°
2026-05-06 19:48 41.76651 27.97785 36063 ft 453 kts 324°
2026-05-06 19:48 41.81710 27.92732 36064 ft 454 kts 324°
2026-05-06 19:49 41.86763 27.87676 36067 ft 454 kts 324°
2026-05-06 19:49 41.91854 27.82572 36050 ft 455 kts 324°
2026-05-06 19:50 41.96743 27.77178 36062 ft 456 kts 317°
2026-05-06 19:50 42.00907 27.70775 36065 ft 457 kts 310°
2026-05-06 19:51 42.04836 27.64062 36062 ft 457 kts 310°
2026-05-06 19:51 42.08765 27.57352 36052 ft 456 kts 310°
2026-05-06 19:52 42.12702 27.50657 36059 ft 455 kts 310°
2026-05-06 19:52 42.16634 27.43974 36067 ft 455 kts 310°
2026-05-06 19:53 42.20561 27.37288 36057 ft 455 kts 310°
2026-05-06 19:53 42.24480 27.30599 36057 ft 454 kts 310°
2026-05-06 19:54 42.28395 27.23902 36057 ft 454 kts 310°
2026-05-06 19:54 42.32301 27.17205 36057 ft 454 kts 310°
2026-05-06 19:55 42.36208 27.10490 36041 ft 454 kts 310°
2026-05-06 19:55 42.40103 27.03781 36056 ft 453 kts 310°
2026-05-06 19:56 42.43994 26.97064 36060 ft 453 kts 310°
2026-05-06 19:56 42.47879 26.90342 36055 ft 453 kts 310°
2026-05-06 19:57 42.51762 26.83609 36067 ft 453 kts 310°
2026-05-06 19:57 42.55644 26.76862 36055 ft 454 kts 310°
2026-05-06 19:58 42.59522 26.70106 36054 ft 454 kts 310°
2026-05-06 19:58 42.63399 26.63339 36051 ft 454 kts 310°
2026-05-06 19:59 42.67272 26.56561 36052 ft 454 kts 310°
2026-05-06 19:59 42.71133 26.49789 36054 ft 453 kts 310°
2026-05-06 20:00 42.74989 26.43010 36048 ft 453 kts 309°
2026-05-06 20:00 42.78838 26.36230 36042 ft 453 kts 309°
2026-05-06 20:01 42.82679 26.29446 36047 ft 452 kts 309°
2026-05-06 20:01 42.86506 26.22672 36063 ft 451 kts 309°
2026-05-06 20:02 42.90333 26.15883 36040 ft 452 kts 309°
2026-05-06 20:02 42.94131 26.09131 36027 ft 451 kts 309°
2026-05-06 20:03 42.97948 26.02329 36025 ft 451 kts 309°
2026-05-06 20:03 43.01754 25.95529 36029 ft 451 kts 309°
2026-05-06 20:04 43.05563 25.88708 36025 ft 451 kts 309°
2026-05-06 20:04 43.09377 25.81864 36011 ft 451 kts 309°
2026-05-06 20:05 43.13162 25.75057 36015 ft 451 kts 309°
2026-05-06 20:05 43.16946 25.68190 36015 ft 452 kts 308°
2026-05-06 20:06 43.20648 25.61234 36018 ft 452 kts 308°
2026-05-06 20:06 43.24323 25.54273 36024 ft 452 kts 308°
2026-05-06 20:07 43.28017 25.47285 36028 ft 452 kts 308°
2026-05-06 20:07 43.31711 25.40297 36025 ft 452 kts 308°
2026-05-06 20:08 43.35405 25.33295 36010 ft 453 kts 308°
2026-05-06 20:08 43.39106 25.26265 36017 ft 453 kts 308°
2026-05-06 20:09 43.42773 25.19280 36016 ft 453 kts 307°
2026-05-06 20:09 43.46452 25.12256 36029 ft 453 kts 307°
2026-05-06 20:10 43.50147 25.05185 36016 ft 453 kts 307°
2026-05-06 20:10 43.53791 24.98194 36021 ft 453 kts 307°
2026-05-06 20:11 43.57460 24.91139 36035 ft 453 kts 307°
2026-05-06 20:11 43.61134 24.84057 36016 ft 454 kts 307°
2026-05-06 20:12 43.64797 24.76980 36021 ft 454 kts 307°
2026-05-06 20:12 43.68462 24.69880 36025 ft 454 kts 307°
2026-05-06 20:13 43.72122 24.62774 36024 ft 454 kts 307°
2026-05-06 20:13 43.75819 24.55641 36024 ft 454 kts 309°
2026-05-06 20:14 43.79878 24.48984 36020 ft 453 kts 311°
2026-05-06 20:14 43.84000 24.42391 36026 ft 453 kts 311°
2026-05-06 20:15 43.88101 24.35790 36018 ft 453 kts 311°
2026-05-06 20:15 43.92192 24.29156 36025 ft 453 kts 311°
2026-05-06 20:16 43.95610 24.23594 36015 ft 453 kts 311°
2026-05-06 20:16 44.00356 24.15848 36018 ft 453 kts 311°
2026-05-06 20:17 44.03776 24.10254 36022 ft 453 kts 311°
2026-05-06 20:17 44.08511 24.02494 36024 ft 454 kts 311°
2026-05-06 20:18 44.11928 23.96879 36016 ft 454 kts 311°
2026-05-06 20:18 44.15984 23.90201 36018 ft 454 kts 311°
2026-05-06 20:19 44.20028 23.83528 36019 ft 454 kts 310°
2026-05-06 20:19 44.24146 23.76715 36019 ft 454 kts 310°
2026-05-06 20:20 44.28178 23.70031 36015 ft 453 kts 310°
2026-05-06 20:20 44.32238 23.63283 36021 ft 453 kts 310°
2026-05-06 20:21 44.36282 23.56545 36019 ft 453 kts 310°
2026-05-06 20:21 44.40324 23.49795 36015 ft 453 kts 310°
2026-05-06 20:22 44.44361 23.43037 36021 ft 452 kts 310°
2026-05-06 20:22 44.48379 23.36297 36019 ft 451 kts 310°
2026-05-06 20:23 44.52385 23.29559 36015 ft 450 kts 310°
2026-05-06 20:23 44.56385 23.22817 36019 ft 450 kts 310°
2026-05-06 20:24 44.60363 23.16094 36026 ft 449 kts 310°
2026-05-06 20:24 44.64384 23.09284 36018 ft 449 kts 310°
2026-05-06 20:25 44.68365 23.02524 36022 ft 449 kts 310°
2026-05-06 20:25 44.72319 22.95795 36018 ft 449 kts 310°
2026-05-06 20:26 44.76294 22.89014 36021 ft 449 kts 310°
2026-05-06 20:26 44.80263 22.82228 36026 ft 449 kts 309°
2026-05-06 20:27 44.84227 22.75433 36030 ft 449 kts 309°
2026-05-06 20:27 44.88196 22.68614 36034 ft 449 kts 309°
2026-05-06 20:28 44.92168 22.61773 36040 ft 450 kts 309°
2026-05-06 20:28 44.96106 22.54974 36031 ft 450 kts 309°
2026-05-06 20:29 45.00072 22.48110 36030 ft 450 kts 309°
2026-05-06 20:29 45.04019 22.41263 36048 ft 450 kts 309°
2026-05-06 20:30 45.09948 22.30946 36035 ft 450 kts 309°
2026-05-06 20:31 45.13885 22.24075 36033 ft 449 kts 309°
2026-05-06 20:31 45.17818 22.17194 36034 ft 449 kts 309°
2026-05-06 20:32 45.21743 22.10311 36039 ft 449 kts 309°
2026-05-06 20:32 45.25655 22.03432 36040 ft 449 kts 309°
2026-05-06 20:33 45.29576 21.96521 36035 ft 449 kts 309°
2026-05-06 20:33 45.33497 21.89593 36031 ft 450 kts 309°
2026-05-06 20:34 45.37417 21.82652 36031 ft 450 kts 308°
2026-05-06 20:34 45.41308 21.75745 36029 ft 450 kts 308°
2026-05-06 20:35 45.45214 21.68790 36032 ft 450 kts 308°
2026-05-06 20:35 45.49124 21.61813 36031 ft 450 kts 308°
2026-05-06 20:36 45.52996 21.54887 36037 ft 450 kts 308°
2026-05-06 20:36 45.56918 21.47857 36022 ft 451 kts 308°
2026-05-06 20:37 45.60817 21.40848 36026 ft 451 kts 308°
2026-05-06 20:37 45.64717 21.33820 36022 ft 451 kts 308°
2026-05-06 20:38 45.68612 21.26784 36022 ft 451 kts 308°
2026-05-06 20:38 45.72503 21.19738 36021 ft 451 kts 307°
2026-05-06 20:39 45.76372 21.12713 36019 ft 451 kts 307°
2026-05-06 20:39 45.80240 21.05672 36020 ft 451 kts 307°
2026-05-06 20:40 45.84122 20.98589 36027 ft 450 kts 307°
2026-05-06 20:40 45.87989 20.91516 36009 ft 451 kts 307°
2026-05-06 20:41 45.91847 20.84439 36009 ft 450 kts 307°
2026-05-06 20:41 45.95713 20.77331 36008 ft 450 kts 307°
2026-05-06 20:42 45.99562 20.70236 36006 ft 450 kts 307°
2026-05-06 20:42 46.03384 20.63173 36002 ft 450 kts 307°
2026-05-06 20:43 46.07227 20.56053 35996 ft 449 kts 307°
2026-05-06 20:43 46.11057 20.48939 35993 ft 448 kts 306°
2026-05-06 20:44 46.14875 20.41831 35990 ft 447 kts 306°
2026-05-06 20:44 46.18724 20.34829 35997 ft 448 kts 308°
2026-05-06 20:45 46.22697 20.27888 35994 ft 449 kts 308°
2026-05-06 20:45 46.26675 20.20934 35986 ft 449 kts 308°
2026-05-06 20:46 46.30633 20.13957 35983 ft 450 kts 308°
2026-05-06 20:46 46.34595 20.06934 35984 ft 450 kts 307°
2026-05-06 20:47 46.38545 19.99909 35978 ft 450 kts 307°
2026-05-06 20:47 46.42491 19.92874 35973 ft 450 kts 307°
2026-05-06 20:48 46.46412 19.85866 35973 ft 449 kts 307°
2026-05-06 20:48 46.50357 19.78798 35966 ft 450 kts 307°
2026-05-06 20:49 46.54296 19.71722 35959 ft 450 kts 307°
2026-05-06 20:49 46.58217 19.64661 35958 ft 450 kts 307°
2026-05-06 20:50 46.62164 19.57535 35952 ft 450 kts 307°
2026-05-06 20:50 46.66087 19.50434 35950 ft 450 kts 307°
2026-05-06 20:51 46.69983 19.43364 35948 ft 450 kts 307°
2026-05-06 20:51 46.73899 19.36238 35949 ft 449 kts 307°
2026-05-06 20:52 46.77802 19.29119 35941 ft 449 kts 307°
2026-05-06 20:52 46.81674 19.22038 35942 ft 449 kts 306°
2026-05-06 20:53 46.85553 19.14925 35939 ft 450 kts 306°
2026-05-06 20:53 46.89451 19.07759 35940 ft 450 kts 306°
2026-05-06 20:54 46.93344 19.00583 35936 ft 451 kts 306°
2026-05-06 20:54 46.97240 18.93383 35930 ft 451 kts 306°
2026-05-06 20:55 47.01132 18.86174 35928 ft 451 kts 306°
2026-05-06 20:55 47.05012 18.78966 35934 ft 451 kts 306°
2026-05-06 20:56 47.08880 18.71761 35915 ft 451 kts 306°
2026-05-06 20:56 47.12769 18.64499 35911 ft 452 kts 305°
2026-05-06 20:57 47.16648 18.57235 35921 ft 452 kts 305°
2026-05-06 20:57 47.20517 18.49973 35927 ft 453 kts 305°
2026-05-06 20:58 47.24408 18.42649 35909 ft 453 kts 305°
2026-05-06 20:58 47.28292 18.35317 35906 ft 454 kts 305°
2026-05-06 20:59 47.32155 18.28008 35895 ft 455 kts 305°
2026-05-06 20:59 47.36050 18.20616 35895 ft 455 kts 305°
2026-05-06 21:00 47.39932 18.13232 35901 ft 455 kts 304°
2026-05-06 21:00 47.43808 18.05837 35888 ft 455 kts 304°
2026-05-06 21:01 47.47680 17.98432 35894 ft 455 kts 304°
2026-05-06 21:01 47.51544 17.91019 35886 ft 455 kts 304°
2026-05-06 21:02 47.55406 17.83592 35885 ft 455 kts 304°
2026-05-06 21:02 47.59237 17.76203 35888 ft 456 kts 304°
2026-05-06 21:03 47.63093 17.68748 35884 ft 456 kts 304°
2026-05-06 21:03 47.66322 17.62488 35886 ft 456 kts 304°
2026-05-06 21:04 47.70168 17.55013 35883 ft 456 kts 304°
2026-05-06 21:04 47.74631 17.46315 35894 ft 456 kts 303°
2026-05-06 21:05 47.78475 17.38798 35881 ft 457 kts 303°
2026-05-06 21:05 47.81702 17.32473 35877 ft 458 kts 303°
2026-05-06 21:06 47.85548 17.24915 35879 ft 459 kts 303°
2026-05-06 21:06 47.89398 17.17329 35868 ft 459 kts 303°
2026-05-06 21:07 47.93247 17.09725 35873 ft 460 kts 303°
2026-05-06 21:07 47.97067 17.02156 35866 ft 460 kts 303°
2026-05-06 21:08 48.00934 16.94472 35867 ft 460 kts 303°
2026-05-06 21:08 48.04748 16.86872 35869 ft 460 kts 303°
2026-05-06 21:09 48.08581 16.79212 35869 ft 461 kts 302°
2026-05-06 21:09 48.12416 16.71527 35865 ft 461 kts 302°
2026-05-06 21:10 48.16247 16.63829 35866 ft 461 kts 302°
2026-05-06 21:10 48.20074 16.56116 35865 ft 461 kts 302°
2026-05-06 21:11 48.23895 16.48394 35866 ft 461 kts 302°
2026-05-06 21:11 48.27717 16.40648 35853 ft 462 kts 302°
2026-05-06 21:12 48.31541 16.32874 35848 ft 463 kts 302°
2026-05-06 21:12 48.35360 16.25088 35865 ft 463 kts 302°
2026-05-06 21:13 48.39180 16.17281 35857 ft 463 kts 302°
2026-05-06 21:13 48.42997 16.09455 35868 ft 464 kts 301°
2026-05-06 21:14 48.46816 16.01602 35866 ft 465 kts 301°
2026-05-06 21:14 48.50628 15.93740 35856 ft 465 kts 301°
2026-05-06 21:15 48.54440 15.85857 35846 ft 464 kts 301°
2026-05-06 21:15 48.58239 15.77980 35869 ft 464 kts 301°
2026-05-06 21:16 48.62028 15.70097 35859 ft 464 kts 301°
2026-05-06 21:16 48.65891 15.62036 35848 ft 463 kts 300°
2026-05-06 21:17 48.76345 15.40103 35874 ft 462 kts 300°
2026-05-06 21:17 48.91445 15.08512 35834 ft 465 kts 304°
2026-05-06 21:18 49.08229 14.78416 35847 ft 467 kts 304°
2026-05-06 21:18 49.24882 14.48045 35859 ft 470 kts 304°
2026-05-06 21:19 49.41647 14.17119 35846 ft 474 kts 304°
2026-05-06 21:19 49.58463 13.85732 35857 ft 476 kts 303°
2026-05-06 21:20 49.75259 13.54001 35811 ft 479 kts 303°
2026-05-06 21:20 49.91989 13.21832 35790 ft 479 kts 301°
2026-05-06 21:21 50.07151 12.87852 35829 ft 479 kts 300°
2026-05-06 21:21 50.22293 12.53635 35788 ft 480 kts 300°
2026-05-06 21:22 50.38048 12.19750 35762 ft 483 kts 304°
2026-05-06 21:22 50.54351 11.86200 35782 ft 483 kts 303°
2026-05-06 21:23 50.70571 11.52302 35755 ft 484 kts 303°
2026-05-06 21:23 50.86689 11.18177 35774 ft 485 kts 304°
2026-05-06 21:24 51.02734 10.83759 35787 ft 486 kts 303°
2026-05-06 21:24 51.18700 10.49047 35763 ft 487 kts 303°
2026-05-06 21:25 51.31064 10.13778 35739 ft 485 kts 291°
2026-05-06 21:25 51.41383 9.76198 35751 ft 489 kts 291°
2026-05-06 21:26 51.52238 9.36166 35743 ft 491 kts 291°
2026-05-06 21:26 51.62988 8.95823 35742 ft 491 kts 291°
2026-05-06 21:27 51.73616 8.55222 35752 ft 490 kts 291°
2026-05-06 21:27 51.84088 8.14490 35824 ft 491 kts 290°
2026-05-06 21:28 51.94456 7.73423 35817 ft 494 kts 290°
2026-05-06 21:28 52.04712 7.32042 35788 ft 494 kts 290°
2026-05-06 21:29 52.14818 6.90482 35793 ft 494 kts 289°
2026-05-06 21:29 52.24753 6.48841 35812 ft 492 kts 289°
2026-05-06 21:30 52.34504 6.07177 35820 ft 489 kts 288°
2026-05-06 21:30 52.44006 5.65771 35836 ft 483 kts 288°
2026-05-06 21:31 52.53259 5.24658 35851 ft 478 kts 288°
2026-05-06 21:31 52.62305 4.83660 35878 ft 475 kts 288°
2026-05-06 21:32 52.71030 4.42651 35889 ft 472 kts 284°
2026-05-06 21:32 52.81331 3.79951 35923 ft 471 kts 283°
2026-05-06 21:33 52.88043 3.38073 35928 ft 471 kts 283°
2026-05-06 21:33 52.94236 2.95937 35941 ft 470 kts 280°
2026-05-06 21:34 52.99677 2.53539 35947 ft 469 kts 280°
2026-05-06 21:34 53.04998 2.11151 35933 ft 468 kts 279°
2026-05-06 21:35 53.10129 1.69094 35953 ft 466 kts 279°
2026-05-06 21:35 53.15122 1.26864 35962 ft 465 kts 279°
2026-05-06 21:36 53.19965 0.84546 35992 ft 464 kts 279°
2026-05-06 21:36 53.24655 0.42205 35991 ft 464 kts 279°
2026-05-06 21:37 53.29167 -0.00298 36003 ft 465 kts 278°
2026-05-06 21:37 53.33523 -0.42900 36018 ft 465 kts 278°
2026-05-06 21:38 53.37524 -0.83354 36029 ft 464 kts 278°
2026-05-06 21:38 53.41630 -1.26024 36045 ft 463 kts 277°
2026-05-06 21:39 53.45512 -1.68083 36057 ft 463 kts 277°
2026-05-06 21:39 53.46656 -1.80796 36048 ft 463 kts 277°
2026-05-06 21:40 53.47594 -1.91479 36056 ft 462 kts 277°
2026-05-06 21:40 53.48512 -2.02130 36053 ft 462 kts 277°
2026-05-06 21:41 53.49427 -2.12803 36059 ft 462 kts 277°
2026-05-06 21:41 53.50336 -2.23496 36053 ft 461 kts 277°
2026-05-06 21:42 53.51235 -2.34147 36049 ft 461 kts 277°
2026-05-06 21:42 53.52127 -2.44802 36048 ft 460 kts 277°
2026-05-06 21:43 53.53008 -2.55448 36053 ft 460 kts 277°
2026-05-06 21:43 53.53878 -2.66093 36053 ft 459 kts 277°
2026-05-06 21:44 53.54738 -2.76732 36055 ft 459 kts 277°
2026-05-06 21:44 53.55588 -2.87372 36053 ft 459 kts 277°
2026-05-06 21:45 53.56429 -2.98017 36056 ft 459 kts 277°
2026-05-06 21:45 53.57261 -3.08667 36054 ft 459 kts 277°
2026-05-06 21:46 53.58082 -3.19312 36055 ft 459 kts 276°
2026-05-06 21:46 53.58895 -3.29964 36054 ft 459 kts 276°
2026-05-06 21:47 53.60205 -3.47423 36051 ft 459 kts 276°
2026-05-06 21:47 53.65120 -3.81303 36079 ft 460 kts 291°
2026-05-06 21:48 53.69250 -3.98418 35976 ft 461 kts 290°
2026-05-06 21:48 53.71701 -4.12208 33848 ft 464 kts 279°
2026-05-06 21:48 53.72311 -4.23580 32163 ft 454 kts 272°
2026-05-06 21:48 53.72466 -4.28854 31594 ft 447 kts 272°
2026-05-06 21:49 53.72633 -4.34071 31009 ft 442 kts 273°
2026-05-06 21:49 53.72813 -4.39222 30430 ft 437 kts 273°
2026-05-06 21:49 53.72995 -4.44306 29822 ft 432 kts 273°
2026-05-06 21:49 53.73283 -4.52522 28760 ft 425 kts 273°
2026-05-06 21:50 53.73940 -4.72095 26361 ft 408 kts 273°
2026-05-06 21:50 53.74548 -4.90716 24637 ft 385 kts 273°
2026-05-06 21:50 53.75112 -5.07997 23893 ft 349 kts 273°
2026-05-06 21:50 53.73362 -5.23926 23385 ft 358 kts 252°
2026-05-06 21:51 53.70028 -5.40049 21398 ft 365 kts 252°
2026-05-06 21:51 53.67061 -5.56233 19383 ft 358 kts 259°
2026-05-06 21:51 53.65044 -5.72590 17351 ft 353 kts 259°
2026-05-06 21:51 53.62921 -5.88545 15270 ft 348 kts 259°
2026-05-06 21:52 53.60793 -6.04418 13099 ft 346 kts 259°
2026-05-06 21:52 53.58755 -6.19912 10841 ft 345 kts 261°
2026-05-06 21:52 53.57252 -6.35933 8400 ft 347 kts 262°
2026-05-06 21:52 53.55896 -6.49789 6480 ft 343 kts 262°
2026-05-06 21:53 53.55502 -6.53745 5906 ft 342 kts 262°
2026-05-06 21:53 53.55109 -6.57677 5341 ft 341 kts 262°
2026-05-06 21:53 53.54577 -6.61495 4736 ft 332 kts 249°
2026-05-06 21:53 53.53304 -6.64643 4267 ft 320 kts 223°
2026-05-06 21:54 53.51440 -6.66444 4075 ft 305 kts 197°
2026-05-06 21:54 53.49385 -6.66650 4052 ft 292 kts 169°
2026-05-06 21:54 53.47588 -6.65338 4042 ft 277 kts 141°
2026-05-06 21:54 53.46433 -6.62906 4046 ft 260 kts 114°
2026-05-06 21:55 53.45845 -6.60155 4042 ft 241 kts 104°
2026-05-06 21:55 53.45466 -6.57515 3785 ft 225 kts 101°
2026-05-06 21:55 53.45221 -6.55004 3488 ft 211 kts 95°
2026-05-06 21:55 53.45077 -6.52650 3191 ft 194 kts 94°
2026-05-06 21:56 53.44980 -6.50496 2950 ft 177 kts 94°
2026-05-06 21:56 53.44864 -6.48518 2673 ft 166 kts 95°
2026-05-06 21:56 53.44750 -6.46603 2508 ft 164 kts 95°
2026-05-06 21:56 53.44636 -6.44772 2296 ft 156 kts 94°
2026-05-06 21:57 53.44539 -6.42995 2034 ft 150 kts 94°
2026-05-06 21:57 53.44446 -6.41263 1822 ft 149 kts 95°
2026-05-06 21:57 53.44352 -6.39534 1628 ft 150 kts 94°
2026-05-06 21:57 53.44259 -6.37783 1423 ft 151 kts 94°
2026-05-06 21:58 53.44165 -6.36025 1206 ft 151 kts 95°
2026-05-06 21:58 53.44062 -6.34269 982 ft 151 kts 95°
2026-05-06 21:58 53.43965 -6.32526 786 ft 149 kts 95°
2026-05-06 21:58 53.43871 -6.30793 571 ft 150 kts 95°
2026-05-06 21:59 53.43774 -6.29063 364 ft 149 kts 95°
2026-05-06 21:59 53.43677 -6.27355 220 ft 145 kts 95°
2026-05-06 21:59 53.43595 -6.25859 218 ft 106 kts 95°
2026-05-06 21:59 53.43544 -6.24934 221 ft 53 kts 95°
2026-05-06 22:00 53.43522 -6.24589 222 ft 16 kts 111°
2026-05-06 22:00 53.43422 -6.24555 219 ft 16 kts 185°
2026-05-06 22:00 53.43363 -6.24607 225 ft 8 kts 253°
2026-05-06 22:00 53.43361 -6.24702 223 ft 8 kts 273°
2026-05-06 22:01 53.43365 -6.24797 221 ft 8 kts 275°
2026-05-06 22:01 53.43370 -6.24893 217 ft 8 kts 275°
2026-05-06 22:01 53.43376 -6.24989 218 ft 8 kts 276°
2026-05-06 22:01 53.43382 -6.25088 220 ft 9 kts 276°
2026-05-06 22:02 53.43388 -6.25190 223 ft 9 kts 273°
2026-05-06 22:02 53.43393 -6.25295 221 ft 9 kts 275°
2026-05-06 22:02 53.43399 -6.25411 218 ft 12 kts 275°